FW0069 Weather Reports


Display with metric or nautical units.
time (UTC)temp
F
wind
direction
speed
MPH
gust
MPH
rain 1hr
in
rain 24hr
in
rain mn
in
humidity
%
barometer
mb
20260903102558 76 175 9.0 13.0 0.00 0.00 0.00 18 1012.0
20260903102058 75 181 4.0 11.0 0.00 0.00 0.00 19 1011.9
20260903101558 75 121 2.0 10.0 0.00 0.00 0.00 20 1011.9
20260903101058 75 87 6.0 10.0 0.00 0.00 0.00 21 1011.9
20260903100558 75 72 5.0 9.0 0.00 0.00 0.00 21 1012.0
20260903100058 76 92 2.0 7.0 0.00 0.00 0.00 20 1012.4
20260903095058 77 147 4.0 4.0 0.00 0.00 0.00 19 1012.3
20260903094558 77 147 2.0 4.0 0.00 0.00 0.00 19 1012.3
20260903094058 77 147 2.0 8.0 0.00 0.00 0.00 18 1012.4
20260903093558 77 147 3.0 13.0 0.00 0.00 0.00 18 1012.3
20260903093058 77 190 2.0 13.0 0.00 0.00 0.00 17 1012.3
20260903092558 77 183 4.0 12.0 0.00 0.00 0.00 17 1012.3
20260903092058 77 182 6.0 11.0 0.00 0.00 0.00 17 1012.3
20260903091558 77 178 1.0 10.0 0.00 0.00 0.00 17 1012.3
20260903091058 77 156 1.0 4.0 0.00 0.00 0.00 17 1012.3
20260903090558 78 155 2.0 5.0 0.00 0.00 0.00 17 1012.6
20260903090058 78 155 3.0 6.0 0.00 0.00 0.00 17 1012.8
20260903085558 78 175 1.0 6.0 0.00 0.00 0.00 17 1012.9
20260903085058 78 173 4.0 8.0 0.00 0.00 0.00 16 1012.8
20260903084058 78 152 1.0 5.0 0.00 0.00 0.00 16 1012.9
20260903083558 79 160 0.0 4.0 0.00 0.00 0.00 16 1012.9
20260903083058 79 160 0.0 5.0 0.00 0.00 0.00 15 1013.0
20260903082558 79 169 3.0 7.0 0.00 0.00 0.00 15 1012.9
20260903082058 79 195 1.0 7.0 0.00 0.00 0.00 15 1012.8
20260903081558 79 215 7.0 7.0 0.00 0.00 0.00 15 1012.7
20260903080558 79 181 4.0 6.0 0.00 0.00 0.00 14 1012.8
20260903080058 80 173 1.0 6.0 0.00 0.00 0.00 13 1013.1
20260903075058 80 168 2.0 7.0 0.00 0.00 0.00 13 1012.7
20260903074558 80 171 4.0 8.0 0.00 0.00 0.00 13 1012.7
20260903074058 80 159 5.0 9.0 0.00 0.00 0.00 12 1012.8
20260903073558 80 164 4.0 10.0 0.00 0.00 0.00 12 1012.7
20260903072558 80 192 7.0 9.0 0.00 0.00 0.00 12 1012.6
20260903071058 80 178 1.0 10.0 0.00 0.00 0.00 12 1012.6
20260903070558 80 185 9.0 9.0 0.00 0.00 0.00 12 1012.6
20260903070058 80 157 3.0 9.0 0.00 0.00 0.00 12 1012.7
20260903065558 80 157 3.0 9.0 0.00 0.00 0.00 12 1012.7
20260903065057 79 167 3.0 9.0 0.00 0.00 0.00 11 1012.6
20260903064558 79 182 4.0 12.0 0.00 0.00 0.00 11 1012.5
20260903064057 79 193 5.0 12.0 0.00 0.00 0.00 11 1012.4
20260903062558 80 150 0.0 3.0 0.00 0.00 0.00 11 1012.5
20260903062057 81 150 1.0 3.0 0.00 0.00 0.00 11 1012.4
20260903061558 81 150 0.0 3.0 0.00 0.00 0.00 11 1012.4
20260903060557 82 155 3.0 4.0 0.00 0.00 0.00 10 1012.7
20260903060057 83 183 0.0 3.0 0.00 0.00 0.00 9 1012.6
20260903055557 83 184 2.0 4.0 0.00 0.00 0.00 9 1012.4
20260903055057 83 186 2.0 4.0 0.00 0.00 0.00 9 1012.3
20260903054058 83 186 3.0 12.0 0.00 0.00 0.00 8 1012.3
20260903053558 83 186 3.0 13.0 0.00 0.00 0.00 8 1012.0
20260903052558 83 171 8.0 12.0 0.00 0.00 0.00 9 1012.1
20260903052058 83 360 4.0 9.0 0.00 0.00 0.00 9 1012.1
20260903051557 83 360 4.0 6.0 0.00 0.00 0.00 9 1012.0
20260903051057 84 360 3.0 8.0 0.00 0.00 0.00 9 1012.1
20260903050558 84 151 2.0 8.0 0.00 0.00 0.00 9 1012.1
20260903050058 84 159 3.0 6.0 0.00 0.00 0.00 9 1012.1
20260903045557 84 165 4.0 6.0 0.00 0.00 0.00 8 1012.1
20260903045057 84 167 3.0 7.0 0.00 0.00 0.00 8 1012.1
20260903044558 84 157 3.0 8.0 0.00 0.00 0.00 8 1012.1
20260903044058 84 182 4.0 9.0 0.00 0.00 0.00 8 1012.2
20260903043557 85 184 8.0 12.0 0.00 0.00 0.00 8 1012.1
20260903042558 85 177 4.0 11.0 0.00 0.00 0.00 8 1012.0
20260903042058 85 174 5.0 11.0 0.00 0.00 0.00 8 1012.1
20260903041557 85 187 7.0 12.0 0.00 0.00 0.00 7 1011.8
20260903041057 85 186 4.0 12.0 0.00 0.00 0.00 7 1011.8
20260903040558 85 153 4.0 10.0 0.00 0.00 0.00 7 1011.9
20260903040057 85 200 4.0 10.0 0.00 0.00 0.00 7 1011.8
20260903035557 85 153 4.0 8.0 0.00 0.00 0.00 7 1011.6
20260903035057 85 198 8.0 8.0 0.00 0.00 0.00 7 1011.6
20260903034557 85 130 2.0 11.0 0.00 0.00 0.00 7 1011.5
20260903034058 85 170 3.0 11.0 0.00 0.00 0.00 7 1011.5
20260903033557 85 150 2.0 7.0 0.00 0.00 0.00 7 1011.4
20260903033057 85 126 4.0 12.0 0.00 0.00 0.00 7 1011.3
20260903032558 85 131 2.0 12.0 0.00 0.00 0.00 7 1011.2
20260903031558 86 148 1.0 9.0 0.00 0.00 0.00 6 1011.3
20260903031057 86 108 1.0 10.0 0.00 0.00 0.00 6 1011.3
20260903030557 86 360 5.0 10.0 0.00 0.00 0.00 6 1011.3
20260903030057 86 360 6.0 7.0 0.00 0.00 0.00 6 1011.3
20260903025558 86 204 7.0 7.0 0.00 0.00 0.00 6 1010.8
20260903025057 87 360 2.0 11.0 0.00 0.00 0.00 5 1010.8
20260903024557 87 360 0.0 11.0 0.00 0.00 0.00 5 1010.9
20260903023557 87 360 3.0 6.0 0.00 0.00 0.00 6 1010.8
20260903022557 88 360 2.0 12.0 0.00 0.00 0.00 5 1010.8
20260903022057 88 360 3.0 13.0 0.00 0.00 0.00 5 1010.8
20260903021557 88 360 12.0 14.0 0.00 0.00 0.00 5 1010.7
20260903021057 88 360 6.0 14.0 0.00 0.00 0.00 5 1010.9
20260903020557 88 360 6.0 11.0 0.00 0.00 0.00 4 1010.8
20260903020057 89 360 11.0 14.0 0.00 0.00 0.00 4 1010.8
20260903015557 89 360 4.0 16.0 0.00 0.00 0.00 5 1010.8
20260903015057 89 360 8.0 18.0 0.00 0.00 0.00 4 1010.7
20260903014557 89 360 10.0 18.0 0.00 0.00 0.00 4 1010.6
20260903014057 90 173 8.0 14.0 0.00 0.00 0.00 5 1010.7
20260903013557 90 177 4.0 14.0 0.00 0.00 0.00 5 1010.7
20260903013057 90 219 7.0 18.0 0.00 0.00 0.00 5 1010.8
20260903012557 90 171 6.0 18.0 0.00 0.00 0.00 5 1010.7
20260903012057 90 180 7.0 15.0 0.00 0.00 0.00 5 1010.6
20260903011557 90 197 4.0 22.0 0.00 0.00 0.00 5 1010.7
20260903010557 91 199 9.0 16.0 0.00 0.00 0.00 5 1011.0
20260903010057 91 198 7.0 15.0 0.00 0.00 0.00 5 1010.9
20260903005557 92 186 7.0 12.0 0.00 0.00 0.00 5 1010.7
20260903005058 92 188 7.0 16.0 0.00 0.00 0.00 5 1010.7
20260903004558 92 211 9.0 16.0 0.00 0.00 0.00 5 1010.7
20260903004057 92 180 8.0 16.0 0.00 0.00 0.00 5 1010.7
20260903003557 92 166 7.0 19.0 0.00 0.00 0.00 5 1010.7
20260903003057 92 167 6.0 19.0 0.00 0.00 0.00 5 1010.7
20260903002557 92 192 7.0 17.0 0.00 0.00 0.00 5 1010.6
20260903002057 92 170 8.0 19.0 0.00 0.00 0.00 5 1010.7
20260903001558 92 185 2.0 19.0 0.00 0.00 0.00 5 1010.8
20260903000557 93 186 12.0 16.0 0.00 0.00 0.00 5 1010.8
20260903000057 94 203 9.0 20.0 0.00 0.00 0.00 4 1010.7
20260902235557 93 169 11.0 20.0 0.00 0.00 0.00 5 1011.0
20260902234557 94 202 7.0 19.0 0.00 0.00 0.00 4 1011.1
20260902233557 94 195 8.0 15.0 0.00 0.00 0.00 4 1011.1
20260902233057 95 190 11.0 15.0 0.00 0.00 0.00 4 1011.4
20260902232557 95 155 5.0 14.0 0.00 0.00 0.00 4 1011.4
20260902231557 94 184 6.0 22.0 0.00 0.00 0.00 4 1011.4
20260902231057 94 186 4.0 15.0 0.00 0.00 0.00 4 1011.4
20260902230557 94 185 7.0 19.0 0.00 0.00 0.00 4 1011.4
20260902230058 94 162 9.0 19.0 0.00 0.00 0.00 4 1011.5
20260902225557 94 159 19.0 19.0 0.00 0.00 0.00 4 1011.5
20260902225057 94 160 4.0 14.0 0.00 0.00 0.00 4 1011.5
20260902224057 94 173 5.0 17.0 0.00 0.00 0.00 4 1011.7
20260902223557 94 193 7.0 18.0 0.00 0.00 0.00 4 1011.8
20260902223057 95 173 8.0 19.0 0.00 0.00 0.00 4 1012.0
20260902222557 95 166 8.0 19.0 0.00 0.00 0.00 4 1012.1
20260902222057 94 188 12.0 19.0 0.00 0.00 0.00 4 1012.0
20260902221557 94 238 15.0 18.0 0.00 0.00 0.00 4 1011.8
20260902221057 94 173 9.0 18.0 0.00 0.00 0.00 4 1012.0
20260902220557 94 98 9.0 18.0 0.00 0.00 0.00 4 1012.3
20260902215057 94 211 17.0 20.0 0.00 0.00 0.00 4 1012.4
20260902214557 94 194 12.0 20.0 0.00 0.00 0.00 4 1012.6
20260902214057 94 187 7.0 20.0 0.00 0.00 0.00 4 1012.6
20260902213557 94 162 13.0 17.0 0.00 0.00 0.00 4 1012.5
20260902212557 94 199 13.0 16.0 0.00 0.00 0.00 4 1012.6
20260902212059 94 190 8.0 17.0 0.00 0.00 0.00 3 1012.6
20260902211557 94 360 8.0 20.0 0.00 0.00 0.00 4 1012.6
20260902211057 94 360 9.0 21.0 0.00 0.00 0.00 4 1012.6
20260902210557 94 360 18.0 21.0 0.00 0.00 0.00 4 1012.7
20260902210057 94 360 4.0 21.0 0.00 0.00 0.00 4 1012.6
20260902205557 94 360 7.0 21.0 0.00 0.00 0.00 4 1013.0
20260902205057 93 360 8.0 20.0 0.00 0.00 0.00 4 1013.1
20260902204557 93 360 6.0 21.0 0.00 0.00 0.00 4 1013.1
20260902203557 93 360 4.0 20.0 0.00 0.00 0.00 4 1013.1
20260902203057 93 360 5.0 21.0 0.00 0.00 0.00 4 1013.1
20260902202557 93 360 6.0 21.0 0.00 0.00 0.00 4 1013.2
20260902201057 93 360 17.0 26.0 0.00 0.00 0.00 5 1013.2
20260902200557 92 360 9.0 21.0 0.00 0.00 0.00 5 1013.1
20260902195557 92 360 8.0 21.0 0.00 0.00 0.00 4 1013.6
20260902194557 92 360 6.0 16.0 0.00 0.00 0.00 5 1013.6
20260902194057 92 360 6.0 17.0 0.00 0.00 0.00 4 1013.5
20260902193557 93 360 3.0 17.0 0.00 0.00 0.00 5 1013.7
20260902193057 93 360 7.0 14.0 0.00 0.00 0.00 4 1013.8
20260902192557 92 360 4.0 16.0 0.00 0.00 0.00 5 1014.0
20260902192056 92 360 7.0 18.0 0.00 0.00 0.00 5 1013.9
20260902191557 92 360 9.0 18.0 0.00 0.00 0.00 4 1014.0
20260902191057 91 360 8.0 20.0 0.00 0.00 0.00 5 1013.9
20260902190557 91 360 9.0 20.0 0.00 0.00 0.00 4 1014.1
20260902190057 92 360 5.0 17.0 0.00 0.00 0.00 4 1014.2
20260902185557 91 360 6.0 18.0 0.00 0.00 0.00 5 1014.4
20260902185056 91 360 7.0 19.0 0.00 0.00 0.00 5 1014.4
20260902184557 90 360 6.0 19.0 0.00 0.00 0.00 4 1014.3
20260902184057 90 360 13.0 19.0 0.00 0.00 0.00 4 1014.4
20260902183557 90 360 11.0 19.0 0.00 0.00 0.00 5 1014.5
20260902183057 90 360 10.0 19.0 0.00 0.00 0.00 4 1014.4
20260902182557 90 360 4.0 20.0 0.00 0.00 0.00 5 1014.6
20260902182057 90 360 5.0 20.0 0.00 0.00 0.00 5 1014.6
20260902181556 89 360 14.0 20.0 0.00 0.00 0.00 5 1014.4
20260902181056 89 360 14.0 17.0 0.00 0.00 0.00 5 1014.3
20260902180556 89 360 16.0 18.0 0.00 0.00 0.00 5 1014.5
20260902180057 88 360 10.0 18.0 0.00 0.00 0.00 5 1014.4
20260902175556 88 360 8.0 19.0 0.00 0.00 0.00 5 1014.3
20260902175057 88 360 7.0 19.0 0.00 0.00 0.00 5 1014.2
20260902174556 88 273 13.0 19.0 0.00 0.00 0.00 5 1014.3
20260902174057 88 267 4.0 20.0 0.00 0.00 0.00 6 1014.3
20260902173556 87 257 9.0 20.0 0.00 0.00 0.00 6 1014.4
20260902173057 87 360 11.0 18.0 0.00 0.00 0.00 6 1014.3
20260902172557 87 360 4.0 18.0 0.00 0.00 0.00 6 1014.3
20260902172057 87 360 8.0 14.0 0.00 0.00 0.00 6 1014.3
20260902171556 87 196 9.0 16.0 0.00 0.00 0.00 6 1014.3
20260902171056 87 165 9.0 16.0 0.00 0.00 0.00 6 1014.3
20260902170556 86 180 4.0 13.0 0.00 0.00 0.00 7 1014.0
20260902170056 86 175 6.0 13.0 0.00 0.00 0.00 7 1014.1
20260902165056 86 126 8.0 12.0 0.00 0.00 0.00 7 1014.4
20260902164556 86 117 8.0 13.0 0.00 0.00 0.00 8 1014.4
20260902164057 85 360 5.0 16.0 0.00 0.00 0.00 8 1014.4
20260902163557 85 360 2.0 16.0 0.00 0.00 0.00 8 1014.3
20260902163056 84 360 12.0 14.0 0.00 0.00 0.00 9 1014.2
20260902162556 84 360 5.0 12.0 0.00 0.00 0.00 10 1014.3
20260902162057 83 360 10.0 12.0 0.00 0.00 0.00 8 1013.9
20260902161557 82 360 1.0 14.0 0.00 0.00 0.00 10 1014.1
20260902161056 82 360 5.0 15.0 0.00 0.00 0.00 10 1014.2
20260902160557 82 360 5.0 15.0 0.00 0.00 0.00 10 1014.1
20260902155557 81 360 9.0 9.0 0.00 0.00 0.00 12 1014.2
20260902155056 81 360 2.0 11.0 0.00 0.00 0.00 11 1014.3
20260902154556 81 360 3.0 11.0 0.00 0.00 0.00 10 1014.2
20260902154057 81 360 7.0 13.0 0.00 0.00 0.00 11 1014.2
20260902153056 80 360 11.0 14.0 0.00 0.00 0.00 10 1014.0
20260902152556 80 360 1.0 17.0 0.00 0.00 0.00 11 1014.0
20260902152056 79 360 9.0 17.0 0.00 0.00 0.00 11 1013.7
20260902151056 78 360 2.0 14.0 0.00 0.00 0.00 11 1013.5
20260902150556 77 360 6.0 15.0 0.00 0.00 0.00 12 1013.6
20260902150057 78 360 5.0 15.0 0.00 0.00 0.00 12 1013.6
20260902145557 78 360 10.0 15.0 0.00 0.00 0.00 12 1013.9
20260902145057 78 126 4.0 15.0 0.00 0.00 0.00 12 1013.8
20260902144556 76 96 3.0 14.0 0.00 0.00 0.00 12 1013.7
20260902144057 76 77 9.0 16.0 0.00 0.00 0.00 13 1013.7
20260902143557 76 99 5.0 16.0 0.00 0.00 0.00 13 1013.6
20260902143056 77 67 7.0 13.0 0.00 0.00 0.00 13 1013.6
20260902142556 77 102 7.0 13.0 0.00 0.00 0.00 13 1013.6
20260902142056 77 63 5.0 13.0 0.00 0.00 0.00 12 1013.6
20260902141056 76 99 10.0 17.0 0.00 0.00 0.00 12 1013.5
20260902135557 75 123 9.0 15.0 0.00 0.00 0.00 13 1013.4
20260902135056 75 103 9.0 13.0 0.00 0.00 0.00 13 1013.3
20260902134056 74 72 7.0 16.0 0.00 0.00 0.00 13 1013.5
20260902133556 74 90 7.0 15.0 0.00 0.00 0.00 13 1013.6
20260902133057 73 96 9.0 15.0 0.00 0.00 0.00 14 1013.3
20260902132556 73 67 10.0 16.0 0.00 0.00 0.00 14 1013.2
20260902132057 73 60 14.0 16.0 0.00 0.00 0.00 14 1013.1
20260902131556 73 80 14.0 15.0 0.00 0.00 0.00 15 1013.1
20260902131056 73 109 10.0 14.0 0.00 0.00 0.00 15 1013.3
20260902130556 73 69 7.0 14.0 0.00 0.00 0.00 15 1013.2
20260902130056 73 68 11.0 15.0 0.00 0.00 0.00 15 1013.2
20260902125556 73 84 8.0 15.0 0.00 0.00 0.00 14 1013.1
20260902125056 74 101 5.0 10.0 0.00 0.00 0.00 14 1013.3
20260902124056 76 78 5.0 14.0 0.00 0.00 0.00 13 1013.4
20260902123557 76 95 7.0 14.0 0.00 0.00 0.00 12 1013.1
20260902123057 75 134 6.0 14.0 0.00 0.00 0.00 12 1013.0
20260902122056 75 115 5.0 13.0 0.00 0.00 0.00 12 1012.9
20260902121556 75 117 4.0 13.0 0.00 0.00 0.00 13 1012.8
20260902121057 75 118 9.0 12.0 0.00 0.00 0.00 13 1012.8
20260902120556 75 130 4.0 10.0 0.00 0.00 0.00 13 1013.0
20260902120056 75 141 4.0 10.0 0.00 0.00 0.00 13 1013.1
20260902115557 75 122 10.0 10.0 0.00 0.00 0.00 13 1013.2
20260902115056 74 153 2.0 9.0 0.00 0.00 0.00 13 1013.4
20260902114557 74 105 1.0 10.0 0.00 0.00 0.00 14 1013.4
20260902114057 74 59 5.0 10.0 0.00 0.00 0.00 14 1013.4
20260902113056 75 34 7.0 9.0 0.00 0.00 0.00 13 1013.2
20260902112056 75 92 8.0 8.0 0.00 0.00 0.00 13 1012.9
20260902111056 75 115 3.0 8.0 0.00 0.00 0.00 13 1013.0
20260902110056 76 111 3.0 9.0 0.00 0.00 0.00 13 1013.0
20260902105556 76 136 3.0 9.0 0.00 0.00 0.00 13 1013.0
20260902105056 76 137 1.0 10.0 0.00 0.00 0.00 13 1013.1
20260902104556 76 142 4.0 10.0 0.00 0.00 0.00 13 1013.1
20260902103556 76 136 2.0 8.0 0.00 0.00 0.00 13 1013.2
20260902103056 76 139 3.0 8.0 0.00 0.00 0.00 13 1013.2